IT9FBN-3 Weather Reports


time (UTC)temp
C
wind
direction
speed
KPH
gust
KPH
rain 1hr
cm
rain 24hr
cm
rain mn
cm
humidity
%
barometer
mb
20260508063501 18 67 4.8 11.3 0.00 0.00 0.00 65 1013.4
20260508063002 17 53 3.2 11.3 0.00 0.00 0.00 65 1013.3
20260508062502 17 45 1.6 8.0 0.00 0.00 0.00 65 1013.4
20260508062002 17 0 0.0 0.0 0.00 0.00 0.00 65 1013.3
20260508061501 17 0 0.0 0.0 0.00 0.00 0.00 64 1013.3
20260508061002 17 0 0.0 0.0 0.00 0.00 0.00 64 1013.4
20260508060502 17 0 0.0 0.0 0.00 0.00 0.00 64 1013.3
20260508060002 17 0 0.0 0.0 0.00 0.00 0.00 64 1013.1
20260508055501 17 0 0.0 0.0 0.00 0.00 0.00 65 1013.1
20260508055002 17 0 0.0 0.0 0.00 0.00 0.00 64 1013.1
20260508054502 17 0 0.0 0.0 0.00 0.00 0.00 62 1013.3
20260508054002 17 0 0.0 0.0 0.00 0.00 0.00 59 1013.0
20260508053501 17 0 0.0 0.0 0.00 0.00 0.00 58 1013.0
20260508053002 17 0 0.0 0.0 0.00 0.00 0.00 61 1012.9
20260508052502 17 0 0.0 0.0 0.00 0.00 0.00 61 1012.8
20260508052002 17 0 0.0 0.0 0.00 0.00 0.00 60 1012.7
20260508051502 17 0 0.0 0.0 0.00 0.00 0.00 60 1012.7
20260508051001 17 0 0.0 0.0 0.00 0.00 0.00 65 1012.6
20260508050502 17 0 0.0 0.0 0.00 0.00 0.00 65 1012.6
20260508050002 16 0 0.0 0.0 0.00 0.00 0.00 66 1012.5
20260508045502 16 0 0.0 0.0 0.00 0.00 0.00 65 1012.5
20260508045002 16 0 0.0 0.0 0.00 0.00 0.00 68 1012.4
20260508044502 16 0 0.0 0.0 0.00 0.00 0.00 70 1012.5
20260508044002 16 0 0.0 0.0 0.00 0.00 0.00 66 1012.5
20260508043502 16 0 0.0 0.0 0.00 0.00 0.00 66 1012.5
20260508043002 16 0 0.0 0.0 0.00 0.00 0.00 66 1012.4
20260508042502 16 0 0.0 0.0 0.00 0.00 0.00 66 1012.4
20260508042003 16 0 0.0 0.0 0.00 0.00 0.00 66 1012.2
20260508041503 16 0 0.0 0.0 0.00 0.00 0.00 66 1012.2
20260508041002 16 0 0.0 0.0 0.00 0.00 0.00 66 1012.3
20260508040501 16 0 0.0 0.0 0.00 0.00 0.00 66 1012.2
20260508040002 16 0 0.0 0.0 0.00 0.00 0.00 66 1012.2
20260508035502 16 0 0.0 0.0 0.00 0.00 0.00 66 1012.1
20260508035002 16 0 0.0 0.0 0.00 0.00 0.00 66 1012.1
20260508034501 16 0 0.0 0.0 0.00 0.00 0.00 66 1012.0
20260508034002 16 0 0.0 0.0 0.00 0.00 0.00 66 1011.9
20260508033502 16 0 0.0 0.0 0.00 0.00 0.00 66 1011.8
20260508033002 16 0 0.0 0.0 0.00 0.00 0.00 66 1011.7
20260508032502 16 0 0.0 0.0 0.00 0.00 0.00 66 1011.7
20260508032002 15 0 0.0 0.0 0.00 0.00 0.00 66 1011.7
20260508031501 15 0 0.0 0.0 0.00 0.00 0.00 68 1011.6
20260508031002 15 0 0.0 0.0 0.00 0.00 0.00 67 1011.7
20260508030502 15 0 0.0 0.0 0.00 0.00 0.00 66 1011.6
20260508030002 15 0 0.0 0.0 0.00 0.00 0.00 66 1011.6
20260508025502 15 0 0.0 0.0 0.00 0.00 0.00 66 1011.4
20260508025002 15 0 0.0 0.0 0.00 0.00 0.00 68 1011.4
20260508024502 15 0 0.0 0.0 0.00 0.00 0.00 68 1011.4
20260508024002 15 0 0.0 0.0 0.00 0.00 0.00 68 1011.4
20260508023502 15 0 0.0 0.0 0.00 0.00 0.00 70 1011.4
20260508023002 15 0 0.0 0.0 0.00 0.00 0.00 69 1011.2
20260508022502 16 0 0.0 0.0 0.00 0.00 0.00 68 1011.3
20260508022002 15 0 0.0 0.0 0.00 0.00 0.00 65 1011.2
20260508021502 15 0 0.0 0.0 0.00 0.00 0.00 66 1011.0
20260508021002 15 0 0.0 0.0 0.00 0.00 0.00 66 1011.1
20260508020502 16 0 0.0 0.0 0.00 0.00 0.00 66 1011.4
20260508020002 15 0 0.0 0.0 0.00 0.00 0.00 65 1011.4
20260508015502 15 0 0.0 0.0 0.00 0.00 0.00 65 1011.2
20260508015002 15 0 0.0 0.0 0.00 0.00 0.00 70 1011.1
20260508014502 16 0 0.0 0.0 0.00 0.00 0.00 71 1011.2
20260508014002 16 0 0.0 0.0 0.00 0.00 0.00 67 1011.1
20260508013502 16 0 0.0 0.0 0.00 0.00 0.00 68 1011.0
20260508013002 16 0 0.0 0.0 0.00 0.00 0.00 66 1011.1
20260508012502 16 0 0.0 0.0 0.00 0.00 0.00 66 1011.2
20260508012002 15 0 0.0 0.0 0.00 0.00 0.00 69 1011.0
20260508011502 15 91 1.6 6.4 0.00 0.00 0.00 69 1011.1
20260508011002 15 93 3.2 6.4 0.00 0.00 0.00 69 1011.4
20260508010502 15 92 1.6 6.4 0.00 0.00 0.00 70 1011.5
20260508010002 15 80 0.0 4.8 0.00 0.00 0.00 74 1011.5
20260508005502 15 0 0.0 0.0 0.00 0.00 0.00 73 1011.2
20260508005002 15 0 0.0 0.0 0.00 0.00 0.00 74 1011.2
20260508004502 15 0 0.0 0.0 0.00 0.00 0.00 74 1011.2
20260508004002 15 0 0.0 0.0 0.00 0.00 0.00 76 1011.4
20260508003502 15 0 0.0 0.0 0.00 0.00 0.00 77 1011.4
20260508003002 15 0 0.0 0.0 0.00 0.00 0.00 76 1011.2
20260508002502 15 0 0.0 0.0 0.00 0.00 0.00 79 1011.2
20260508002002 15 0 0.0 0.0 0.00 0.00 0.00 78 1011.2
20260508001502 15 0 0.0 0.0 0.00 0.00 0.00 79 1011.1
20260508001002 15 0 0.0 0.0 0.00 0.00 0.00 78 1011.3
20260508000502 15 0 0.0 0.0 0.00 0.00 0.00 77 1011.5
20260508000002 16 340 1.6 4.8 0.00 0.00 0.00 78 1011.5
20260507235502 16 340 1.6 4.8 0.00 0.00 0.00 76 1011.7
20260507235002 16 340 1.6 4.8 0.00 0.00 0.00 75 1011.8
20260507234502 16 340 1.6 4.8 0.00 0.00 0.00 74 1011.9
20260507234002 16 343 1.6 4.8 0.00 0.00 0.00 74 1011.9
20260507233502 16 346 1.6 4.8 0.00 0.00 0.00 73 1011.9
20260507233002 16 79 0.0 3.2 0.00 0.00 0.00 73 1012.0
20260507232502 16 0 0.0 0.0 0.00 0.00 0.00 73 1011.9
20260507232002 16 0 0.0 0.0 0.00 0.00 0.00 72 1011.9
20260507231502 16 0 0.0 0.0 0.00 0.00 0.00 73 1012.2
20260507231002 16 0 0.0 0.0 0.00 0.00 0.00 72 1012.2
20260507230502 16 0 0.0 0.0 0.00 0.00 0.00 71 1012.5
20260507230003 16 0 0.0 0.0 0.00 0.00 0.00 71 1012.6
20260507225502 16 48 1.6 6.4 0.00 0.00 0.00 71 1012.7
20260507225002 16 27 3.2 9.7 0.00 0.00 0.00 71 1012.7
20260507224504 16 6 4.8 9.7 0.00 0.00 0.00 72 1012.9
20260507224002 16 358 3.2 8.0 0.00 0.00 0.00 73 1012.9
20260507223502 16 8 4.8 9.7 0.00 0.00 0.00 74 1012.9
20260507223002 16 8 4.8 9.7 0.00 0.00 0.00 74 1013.0
20260507222502 16 4 6.4 9.7 0.00 0.00 0.00 73 1013.1
20260507222002 16 20 4.8 9.7 0.00 0.00 0.00 72 1013.1
20260507221502 16 37 6.4 12.9 0.00 0.00 0.00 72 1013.2
20260507221002 16 36 6.4 12.9 0.00 0.00 0.00 71 1013.1
20260507220502 16 42 6.4 11.3 0.00 0.00 0.00 71 1013.3
20260507220006 16 54 4.8 11.3 0.00 0.00 0.00 70 1013.3
20260507215503 16 65 4.8 8.0 0.00 0.00 0.00 70 1013.2
20260507215002 16 65 4.8 8.0 0.00 0.00 0.00 70 1013.1
20260507214502 16 66 4.8 9.7 0.00 0.00 0.00 70 1013.3
20260507214002 17 61 4.8 9.7 0.00 0.00 0.00 70 1013.2
20260507213502 17 56 4.8 9.7 0.00 0.00 0.00 69 1013.1
20260507213002 17 66 4.8 8.0 0.00 0.00 0.00 68 1012.9
20260507212502 17 129 4.8 8.0 0.00 0.00 0.00 67 1013.0
20260507212002 17 190 4.8 6.4 0.00 0.00 0.00 66 1012.7
20260507211502 17 193 3.2 6.4 0.00 0.00 0.00 66 1012.6
20260507211002 17 196 1.6 6.4 0.00 0.00 0.00 66 1012.3
20260507210502 17 198 1.6 4.8 0.00 0.00 0.00 66 1012.2
20260507210002 17 196 3.2 6.4 0.00 0.00 0.00 67 1011.9
20260507205502 17 182 3.2 6.4 0.00 0.00 0.00 67 1011.5
20260507205002 17 168 3.2 6.4 0.00 0.00 0.00 67 1011.3
20260507204502 17 162 1.6 4.8 0.00 0.00 0.00 67 1011.4
20260507204002 17 0 0.0 0.0 0.00 0.00 0.00 66 1011.6
20260507203502 17 0 0.0 0.0 0.00 0.00 0.00 65 1011.5
20260507203002 17 0 0.0 0.0 0.00 0.00 0.00 64 1011.5
20260507202502 17 0 0.0 0.0 0.00 0.00 0.00 64 1011.2
20260507202002 17 91 0.0 3.2 0.00 0.00 0.00 64 1011.3
20260507201502 17 91 1.6 4.8 0.00 0.00 0.00 64 1011.5
20260507201002 17 86 3.2 8.0 0.00 0.00 0.00 64 1011.7
20260507200502 17 84 3.2 8.0 0.00 0.00 0.00 64 1011.8
20260507200002 17 85 1.6 6.4 0.00 0.00 0.00 64 1011.7
20260507195502 17 81 3.2 6.4 0.00 0.00 0.00 64 1011.7
20260507195002 17 76 3.2 6.4 0.00 0.00 0.00 66 1011.9
20260507194502 17 76 4.8 6.4 0.00 0.00 0.00 66 1012.1
20260507194002 17 75 4.8 8.0 0.00 0.00 0.00 67 1012.0
20260507193502 17 72 4.8 9.7 0.00 0.00 0.00 68 1011.9
20260507193002 17 71 4.8 9.7 0.00 0.00 0.00 69 1011.9
20260507192502 17 74 4.8 8.0 0.00 0.00 0.00 69 1011.7
20260507192002 17 78 3.2 6.4 0.00 0.00 0.00 69 1011.4
20260507191502 17 72 3.2 6.4 0.00 0.00 0.00 69 1011.4
20260507191002 17 62 4.8 8.0 0.00 0.00 0.00 69 1011.2
20260507190502 17 53 4.8 9.7 0.00 0.00 0.00 69 1011.2
20260507190004 17 50 4.8 9.7 0.00 0.00 0.00 70 1011.2
20260507185502 18 52 4.8 9.7 0.00 0.00 0.00 70 1011.1
20260507185002 18 51 6.4 9.7 0.00 0.00 0.00 70 1011.1
20260507184503 18 50 4.8 9.7 0.00 0.00 0.00 69 1010.9
20260507184002 18 49 4.8 9.7 0.00 0.00 0.00 70 1010.9
20260507183502 18 49 4.8 9.7 0.00 0.00 0.00 70 1010.9
20260507183002 18 55 4.8 9.7 0.00 0.00 0.00 69 1011.1
20260507182503 18 57 4.8 9.7 0.00 0.00 0.00 70 1011.1
20260507182002 18 59 4.8 9.7 0.00 0.00 0.00 69 1011.0
20260507181503 18 66 4.8 8.0 0.00 0.00 0.00 69 1010.9
20260507181002 18 59 4.8 11.3 0.00 0.00 0.00 69 1011.0
20260507180502 18 55 6.4 11.3 0.00 0.00 0.00 69 1011.0
20260507180003 18 55 6.4 14.5 0.00 0.00 0.00 69 1011.1
20260507175503 18 56 8.0 14.5 0.00 0.00 0.00 69 1010.9
20260507175002 18 59 9.7 16.1 0.00 0.00 0.00 69 1011.0
20260507174502 18 62 8.0 16.1 0.00 0.00 0.00 69 1011.0
20260507174003 18 61 8.0 16.1 0.00 0.00 0.00 69 1010.9
20260507173502 18 59 8.0 17.7 0.00 0.00 0.00 68 1010.9
20260507173002 18 59 8.0 17.7 0.00 0.00 0.00 68 1010.9
20260507172503 18 58 8.0 19.3 0.00 0.00 0.00 68 1010.8
20260507172002 18 57 9.7 19.3 0.00 0.00 0.00 68 1010.7
20260507171503 18 54 8.0 19.3 0.00 0.00 0.00 68 1010.4
20260507171003 18 54 8.0 19.3 0.00 0.00 0.00 67 1010.3
20260507170503 18 44 9.7 20.9 0.00 0.00 0.00 67 1010.3
20260507170002 19 37 11.3 20.9 0.00 0.00 0.00 67 1010.4
20260507165503 19 37 11.3 19.3 0.00 0.00 0.00 67 1010.3
20260507165002 19 43 12.9 20.9 0.00 0.00 0.00 67 1010.3
20260507164502 19 45 12.9 20.9 0.00 0.00 0.00 66 1010.5
20260507164003 19 45 12.9 22.5 0.00 0.00 0.00 66 1010.3
20260507163502 20 46 12.9 22.5 0.00 0.00 0.00 66 1010.6
20260507163002 20 47 11.3 22.5 0.00 0.00 0.00 65 1010.6
20260507162503 20 43 11.3 20.9 0.00 0.00 0.00 65 1010.8
20260507162002 20 45 12.9 22.5 0.00 0.00 0.00 65 1010.7
20260507161503 20 55 11.3 24.1 0.00 0.00 0.00 64 1010.7
20260507161002 20 56 11.3 24.1 0.00 0.00 0.00 63 1010.7
20260507160503 20 54 9.7 19.3 0.00 0.00 0.00 63 1010.7
20260507160002 21 58 11.3 22.5 0.00 0.00 0.00 62 1010.7
20260507155502 21 58 11.3 22.5 0.00 0.00 0.00 63 1010.7
20260507155002 21 65 12.9 22.5 0.00 0.00 0.00 60 1010.5
20260507154503 21 84 12.9 20.9 0.00 0.00 0.00 60 1010.5
20260507154002 21 92 12.9 24.1 0.00 0.00 0.00 51 1010.5
20260507153502 21 81 12.9 25.7 0.00 0.00 0.00 52 1010.4
20260507153003 21 68 12.9 25.7 0.00 0.00 0.00 57 1010.4
20260507152503 21 66 11.3 22.5 0.00 0.00 0.00 59 1010.2
20260507152003 21 89 12.9 20.9 0.00 0.00 0.00 59 1010.2
20260507151503 21 105 9.7 20.9 0.00 0.00 0.00 59 1010.1
20260507151003 21 107 8.0 24.1 0.00 0.00 0.00 58 1009.9
20260507150503 21 81 12.9 27.4 0.00 0.00 0.00 58 1009.9
20260507150002 21 58 12.9 27.4 0.00 0.00 0.00 61 1010.0
20260507145503 21 63 12.9 27.4 0.00 0.00 0.00 61 1010.2
20260507145002 21 71 14.5 27.4 0.00 0.00 0.00 60 1010.2
20260507144503 21 87 14.5 27.4 0.00 0.00 0.00 59 1010.5
20260507144003 22 105 16.1 29.0 0.00 0.00 0.00 52 1010.5
20260507143503 22 106 17.7 29.0 0.00 0.00 0.00 51 1010.5
20260507143003 22 103 17.7 29.0 0.00 0.00 0.00 53 1010.4
20260507142502 22 98 16.1 29.0 0.00 0.00 0.00 52 1010.6
20260507142003 22 101 16.1 29.0 0.00 0.00 0.00 52 1010.6
20260507141503 22 110 17.7 29.0 0.00 0.00 0.00 51 1010.5
20260507141003 22 104 17.7 33.8 0.00 0.00 0.00 51 1010.5
20260507140503 22 95 17.7 33.8 0.00 0.00 0.00 51 1010.5
20260507140003 22 97 19.3 33.8 0.00 0.00 0.00 51 1010.5
20260507135503 22 89 20.9 33.8 0.00 0.00 0.00 51 1010.3
20260507135003 22 88 14.5 29.0 0.00 0.00 0.00 50 1010.3
20260507134503 23 140 6.4 24.1 0.00 0.00 0.00 49 1010.4
20260507134003 23 190 6.4 16.1 0.00 0.00 0.00 47 1010.1
20260507133503 23 168 4.8 16.1 0.00 0.00 0.00 45 1010.3
20260507133003 23 85 3.2 11.3 0.00 0.00 0.00 47 1010.2
20260507132503 23 186 4.8 11.3 0.00 0.00 0.00 46 1010.3
20260507132003 23 223 6.4 14.5 0.00 0.00 0.00 47 1010.4
20260507131503 22 212 8.0 17.7 0.00 0.00 0.00 46 1010.3
20260507131002 22 199 9.7 17.7 0.00 0.00 0.00 46 1010.4
20260507130503 22 191 8.0 17.7 0.00 0.00 0.00 47 1010.6
20260507130003 22 176 6.4 16.1 0.00 0.00 0.00 48 1010.7
20260507125503 22 180 9.7 19.3 0.00 0.00 0.00 48 1010.7
20260507125003 22 194 9.7 19.3 0.00 0.00 0.00 48 1010.5
20260507124503 22 187 9.7 16.1 0.00 0.00 0.00 48 1010.8
20260507124003 22 179 9.7 16.1 0.00 0.00 0.00 49 1010.7
20260507123503 22 175 8.0 16.1 0.00 0.00 0.00 49 1010.6
20260507123003 22 171 6.4 12.9 0.00 0.00 0.00 49 1010.5
20260507122503 22 176 4.8 16.1 0.00 0.00 0.00 49 1010.5
20260507122004 22 171 6.4 16.1 0.00 0.00 0.00 48 1010.4